GJS4560 KDCA-KEWR

Flight info

Callsign GJS4560
Flight time 0h 44m
Altitude 17000
Route SOOKI6 SWANN PHLBO4
Aircraft CRJ7/M-SDFGIRWY/S

Departure

Time 2026-05-03 22:51
Airport Ronald Reagan Washington National Airport (KDCA)

Arrival

Time 2026-05-03 23:35
Airport Newark Liberty International Airport (KEWR)
Time Latitude Longitude Altitude Speed Heading
2026-05-03 21:48 38.85003 -77.04040 17 ft 0 kts 296°
2026-05-03 21:50 38.85003 -77.04041 17 ft 0 kts 296°
2026-05-03 21:54 38.85004 -77.04041 17 ft 0 kts 296°
2026-05-03 22:00 38.85004 -77.04042 17 ft 0 kts 296°
2026-05-03 22:06 38.85002 -77.04037 17 ft 1 kts 296°
2026-05-03 22:06 38.84998 -77.04025 17 ft 1 kts 296°
2026-05-03 22:06 38.84993 -77.04014 19 ft 1 kts 290°
2026-05-03 22:07 38.84991 -77.04001 18 ft 1 kts 275°
2026-05-03 22:07 38.84992 -77.03987 20 ft 2 kts 241°
2026-05-03 22:07 38.85001 -77.03974 17 ft 2 kts 217°
2026-05-03 22:07 38.85014 -77.03966 16 ft 2 kts 197°
2026-05-03 22:08 38.85027 -77.03964 18 ft 2 kts 175°
2026-05-03 22:08 38.85036 -77.03965 18 ft 0 kts 175°
2026-05-03 22:10 38.85032 -77.03965 18 ft 0 kts 175°
2026-05-03 22:11 38.85024 -77.03964 19 ft 4 kts 175°
2026-05-03 22:11 38.84983 -77.03960 16 ft 7 kts 175°
2026-05-03 22:11 38.84936 -77.03955 16 ft 7 kts 176°
2026-05-03 22:12 38.84894 -77.03944 18 ft 6 kts 147°
2026-05-03 22:12 38.84879 -77.03896 16 ft 7 kts 89°
2026-05-03 22:12 38.84881 -77.03821 16 ft 10 kts 88°
2026-05-03 22:12 38.84887 -77.03720 19 ft 13 kts 79°
2026-05-03 22:13 38.84912 -77.03630 24 ft 9 kts 66°
2026-05-03 22:13 38.84939 -77.03556 24 ft 9 kts 65°
2026-05-03 22:13 38.84954 -77.03495 23 ft 6 kts 96°
2026-05-03 22:13 38.84938 -77.03456 22 ft 5 kts 126°
2026-05-03 22:14 38.84919 -77.03408 20 ft 6 kts 109°
2026-05-03 22:14 38.84913 -77.03366 20 ft 2 kts 72°
2026-05-03 22:14 38.84914 -77.03364 20 ft 0 kts 44°
2026-05-03 22:38 38.84914 -77.03363 20 ft 0 kts 43°
2026-05-03 22:47 38.84919 -77.03358 21 ft 2 kts 42°
2026-05-03 22:47 38.84928 -77.03347 22 ft 1 kts 43°
2026-05-03 22:47 38.84930 -77.03345 21 ft 0 kts 43°
2026-05-03 22:49 38.84931 -77.03343 21 ft 2 kts 46°
2026-05-03 22:49 38.84947 -77.03311 21 ft 5 kts 61°
2026-05-03 22:49 38.84970 -77.03272 21 ft 6 kts 47°
2026-05-03 22:50 38.84995 -77.03250 22 ft 3 kts
2026-05-03 22:50 38.85011 -77.03255 22 ft 2 kts 329°
2026-05-03 22:50 38.85032 -77.03274 23 ft 25 kts 324°
2026-05-03 22:50 38.85426 -77.03657 18 ft 114 kts 323°
2026-05-03 22:51 38.86194 -77.04383 420 ft 139 kts 320°
2026-05-03 22:51 38.87004 -77.05099 1320 ft 155 kts 327°
2026-05-03 22:51 38.87984 -77.05851 2063 ft 172 kts 323°
2026-05-03 22:51 38.88830 -77.06959 2874 ft 178 kts 307°
2026-05-03 22:52 38.89541 -77.08220 3999 ft 166 kts 307°
2026-05-03 22:52 38.90218 -77.09355 5071 ft 157 kts 308°
2026-05-03 22:52 38.91029 -77.10243 5839 ft 156 kts 325°
2026-05-03 22:52 38.91975 -77.11047 6499 ft 165 kts 326°
2026-05-03 22:53 38.92994 -77.11899 6932 ft 186 kts 325°
2026-05-03 22:53 38.94136 -77.12863 7385 ft 206 kts 326°
2026-05-03 22:53 38.95449 -77.13846 7798 ft 235 kts 332°
2026-05-03 22:53 38.97116 -77.14344 8357 ft 263 kts 357°
2026-05-03 22:54 38.98979 -77.13888 9206 ft 280 kts 15°
2026-05-03 22:54 39.00773 -77.12970 10129 ft 290 kts 20°
2026-05-03 22:54 39.02547 -77.11672 10773 ft 311 kts 38°
2026-05-03 22:54 39.03810 -77.09308 11441 ft 332 kts 66°
2026-05-03 22:55 39.04605 -77.06434 12162 ft 345 kts 73°
2026-05-03 22:55 39.05143 -77.03386 13008 ft 353 kts 82°
2026-05-03 22:55 39.05487 -77.00265 13837 ft 360 kts 84°
2026-05-03 22:55 39.05800 -76.96990 14448 ft 366 kts 85°
2026-05-03 22:56 39.06131 -76.93750 15046 ft 372 kts 84°
2026-05-03 22:56 39.06540 -76.90424 15621 ft 377 kts 82°
2026-05-03 22:56 39.06990 -76.87069 16237 ft 382 kts 82°
2026-05-03 22:56 39.07431 -76.83691 16692 ft 387 kts 83°
2026-05-03 22:57 39.07863 -76.80333 16882 ft 373 kts 83°
2026-05-03 22:57 39.08282 -76.77053 16957 ft 367 kts 83°
2026-05-03 22:57 39.08691 -76.73846 16993 ft 365 kts 83°
2026-05-03 22:57 39.09105 -76.70609 17019 ft 365 kts 83°
2026-05-03 22:58 39.09517 -76.67351 17024 ft 372 kts 83°
2026-05-03 22:58 39.09939 -76.64043 16999 ft 383 kts 83°
2026-05-03 22:58 39.10376 -76.60598 17012 ft 395 kts 83°
2026-05-03 22:58 39.10822 -76.57080 17014 ft 397 kts 83°
2026-05-03 22:59 39.11261 -76.53597 17007 ft 391 kts 83°
2026-05-03 22:59 39.11696 -76.50140 17002 ft 389 kts 83°
2026-05-03 22:59 39.12126 -76.46701 16995 ft 394 kts 83°
2026-05-03 22:59 39.12566 -76.43196 16992 ft 398 kts 83°
2026-05-03 23:00 39.13005 -76.39671 17008 ft 399 kts 83°
2026-05-03 23:00 39.13448 -76.36130 17008 ft 398 kts 83°
2026-05-03 23:00 39.13884 -76.32618 17007 ft 401 kts 83°
2026-05-03 23:00 39.14328 -76.29035 17007 ft 406 kts 83°
2026-05-03 23:01 39.14774 -76.25406 17007 ft 411 kts 82°
2026-05-03 23:01 39.15730 -76.21927 16993 ft 410 kts 59°
2026-05-03 23:01 39.17525 -76.19222 17004 ft 398 kts 37°
2026-05-03 23:01 39.19741 -76.17019 17016 ft 405 kts 33°
2026-05-03 23:02 39.22011 -76.14808 17021 ft 407 kts 35°
2026-05-03 23:02 39.24164 -76.12522 17011 ft 399 kts 38°
2026-05-03 23:02 39.26187 -76.10155 16999 ft 388 kts 40°
2026-05-03 23:02 39.28160 -76.07771 16995 ft 385 kts 41°
2026-05-03 23:03 39.30115 -76.05402 16991 ft 384 kts 40°
2026-05-03 23:03 39.32053 -76.03060 16997 ft 387 kts 40°
2026-05-03 23:03 39.34055 -76.00684 16997 ft 393 kts 40°
2026-05-03 23:03 39.36098 -75.98278 17001 ft 398 kts 40°
2026-05-03 23:04 39.38162 -75.95842 16996 ft 401 kts 40°
2026-05-03 23:04 39.40211 -75.93425 16995 ft 402 kts 40°
2026-05-03 23:04 39.42282 -75.90981 16992 ft 398 kts 40°
2026-05-03 23:04 39.44291 -75.88608 16989 ft 395 kts 40°
2026-05-03 23:05 39.46323 -75.86211 16983 ft 392 kts 40°
2026-05-03 23:05 39.48336 -75.83828 16986 ft 389 kts 40°
2026-05-03 23:05 39.50323 -75.81474 16982 ft 396 kts 40°
2026-05-03 23:05 39.52387 -75.79031 16989 ft 404 kts 40°
2026-05-03 23:06 39.54465 -75.76564 16982 ft 400 kts 40°
2026-05-03 23:06 39.56507 -75.74141 16978 ft 399 kts 40°
2026-05-03 23:06 39.58566 -75.71691 16934 ft 403 kts 40°
2026-05-03 23:06 39.60600 -75.69275 16676 ft 396 kts 40°
2026-05-03 23:07 39.62610 -75.66877 16423 ft 387 kts 40°
2026-05-03 23:07 39.64591 -75.64518 16167 ft 387 kts 40°
2026-05-03 23:07 39.66577 -75.62148 15913 ft 386 kts 40°
2026-05-03 23:07 39.68532 -75.59815 15666 ft 385 kts 40°
2026-05-03 23:08 39.70499 -75.57450 15419 ft 384 kts 40°
2026-05-03 23:08 39.72467 -75.55076 15171 ft 384 kts 40°
2026-05-03 23:08 39.74415 -75.52728 14928 ft 384 kts 40°
2026-05-03 23:08 39.76393 -75.50342 14704 ft 382 kts 40°
2026-05-03 23:09 39.78312 -75.48029 14448 ft 380 kts 41°
2026-05-03 23:09 39.80270 -75.45662 14196 ft 386 kts 41°
2026-05-03 23:09 39.82273 -75.43242 13939 ft 390 kts 41°
2026-05-03 23:09 39.84228 -75.40875 13684 ft 390 kts 41°
2026-05-03 23:10 39.86205 -75.38478 13389 ft 382 kts 41°
2026-05-03 23:10 39.88116 -75.36165 13102 ft 373 kts 41°
2026-05-03 23:10 39.89995 -75.33885 12820 ft 362 kts 41°
2026-05-03 23:10 39.91828 -75.31666 12563 ft 353 kts 41°
2026-05-03 23:11 39.93605 -75.29507 12293 ft 345 kts 41°
2026-05-03 23:11 39.95325 -75.27417 12032 ft 339 kts 41°
2026-05-03 23:11 39.97048 -75.25322 11776 ft 334 kts 41°
2026-05-03 23:11 39.98758 -75.23241 11531 ft 336 kts 41°
2026-05-03 23:12 40.00484 -75.21138 11285 ft 339 kts 41°
2026-05-03 23:12 40.02181 -75.19077 11048 ft 336 kts 41°
2026-05-03 23:12 40.03884 -75.16995 10815 ft 334 kts 41°
2026-05-03 23:12 40.05560 -75.14949 10580 ft 331 kts 40°
2026-05-03 23:13 40.07250 -75.12892 10337 ft 328 kts 41°
2026-05-03 23:13 40.08878 -75.10900 10101 ft 312 kts 41°
2026-05-03 23:13 40.10452 -75.08973 9862 ft 305 kts 41°
2026-05-03 23:13 40.11974 -75.07108 9602 ft 302 kts 41°
2026-05-03 23:14 40.13509 -75.05230 9345 ft 298 kts 41°
2026-05-03 23:14 40.15013 -75.03387 9068 ft 293 kts 41°
2026-05-03 23:14 40.16483 -75.01582 8798 ft 292 kts 41°
2026-05-03 23:14 40.17973 -74.99758 8533 ft 292 kts 41°
2026-05-03 23:15 40.19457 -74.97941 8287 ft 291 kts 41°
2026-05-03 23:15 40.20902 -74.96159 8145 ft 286 kts 40°
2026-05-03 23:15 40.22378 -74.94347 8068 ft 292 kts 41°
2026-05-03 23:15 40.23849 -74.92538 8066 ft 293 kts 41°
2026-05-03 23:16 40.25327 -74.90697 8052 ft 289 kts 42°
2026-05-03 23:16 40.26278 -74.89471 8042 ft 288 kts 43°
2026-05-03 23:16 40.28128 -74.86952 8027 ft 291 kts 44°
2026-05-03 23:16 40.29064 -74.85641 8029 ft 291 kts 45°
2026-05-03 23:17 40.30408 -74.83719 8035 ft 288 kts 45°
2026-05-03 23:17 40.31774 -74.81764 8032 ft 291 kts 45°
2026-05-03 23:17 40.33160 -74.79804 8044 ft 294 kts 45°
2026-05-03 23:17 40.34525 -74.77881 8045 ft 285 kts 45°
2026-05-03 23:18 40.35878 -74.75984 8058 ft 285 kts 45°
2026-05-03 23:18 40.37240 -74.74052 8048 ft 289 kts 45°
2026-05-03 23:18 40.38605 -74.72133 8033 ft 291 kts 44°
2026-05-03 23:18 40.40002 -74.70178 8031 ft 294 kts 44°
2026-05-03 23:19 40.41400 -74.68212 8035 ft 293 kts 44°
2026-05-03 23:19 40.43004 -74.66701 8042 ft 285 kts 18°
2026-05-03 23:19 40.44906 -74.66030 8034 ft 282 kts
2026-05-03 23:19 40.46849 -74.65550 8031 ft 285 kts
2026-05-03 23:20 40.48819 -74.65109 8033 ft 285 kts
2026-05-03 23:20 40.50748 -74.64680 8017 ft 282 kts
2026-05-03 23:20 40.52680 -74.64219 8008 ft 282 kts
2026-05-03 23:20 40.54611 -74.63725 8007 ft 281 kts
2026-05-03 23:21 40.56501 -74.63241 8000 ft 273 kts
2026-05-03 23:21 40.58372 -74.62691 8000 ft 278 kts 10°
2026-05-03 23:21 40.60250 -74.62117 8021 ft 281 kts 10°
2026-05-03 23:21 40.62149 -74.61529 7762 ft 278 kts 10°
2026-05-03 23:22 40.65847 -74.60378 7182 ft 272 kts 11°
2026-05-03 23:22 40.67694 -74.59804 6896 ft 272 kts 10°
2026-05-03 23:22 40.69523 -74.59245 6612 ft 267 kts 10°
2026-05-03 23:23 40.71327 -74.58696 6331 ft 262 kts 11°
2026-05-03 23:23 40.73059 -74.58048 6152 ft 265 kts 24°
2026-05-03 23:23 40.74569 -74.56593 6080 ft 269 kts 36°
2026-05-03 23:23 40.76018 -74.55040 6054 ft 266 kts 37°
2026-05-03 23:24 40.77432 -74.53497 6039 ft 269 kts 37°
2026-05-03 23:24 40.78888 -74.51893 6025 ft 274 kts 37°
2026-05-03 23:24 40.80356 -74.50257 6063 ft 274 kts 38°
2026-05-03 23:24 40.81804 -74.48629 6036 ft 273 kts 38°
2026-05-03 23:25 40.83243 -74.47039 6055 ft 272 kts 37°
2026-05-03 23:25 40.84685 -74.45432 6060 ft 266 kts 37°
2026-05-03 23:25 40.86063 -74.43878 6057 ft 255 kts 37°
2026-05-03 23:25 40.87440 -74.42320 6022 ft 272 kts 37°
2026-05-03 23:26 40.88875 -74.40707 5790 ft 268 kts 38°
2026-05-03 23:26 40.90281 -74.39127 5506 ft 263 kts 37°
2026-05-03 23:26 40.91676 -74.37554 5260 ft 268 kts 41°
2026-05-03 23:26 40.92640 -74.35398 4955 ft 274 kts 73°
2026-05-03 23:27 40.93016 -74.32932 4710 ft 271 kts 78°
2026-05-03 23:27 40.93330 -74.30503 4467 ft 272 kts 78°
2026-05-03 23:27 40.93624 -74.28032 4237 ft 269 kts 79°
2026-05-03 23:27 40.93873 -74.25605 4029 ft 262 kts 84°
2026-05-03 23:28 40.93596 -74.23256 3767 ft 256 kts 106°
2026-05-03 23:28 40.93096 -74.21133 3632 ft 234 kts 106°
2026-05-03 23:28 40.92604 -74.19120 3438 ft 228 kts 107°
2026-05-03 23:28 40.92099 -74.17132 3258 ft 227 kts 108°
2026-05-03 23:29 40.91593 -74.15156 3120 ft 223 kts 108°
2026-05-03 23:29 40.91106 -74.13266 3056 ft 215 kts 108°
2026-05-03 23:29 40.90623 -74.11407 2950 ft 211 kts 108°
2026-05-03 23:29 40.90155 -74.09590 2878 ft 208 kts 108°
2026-05-03 23:30 40.89429 -74.07945 2844 ft 213 kts 140°
2026-05-03 23:30 40.88175 -74.06986 2796 ft 207 kts 155°
2026-05-03 23:30 40.86867 -74.06153 2657 ft 211 kts 160°
2026-05-03 23:30 40.85484 -74.05944 2557 ft 191 kts 199°
2026-05-03 23:31 40.84326 -74.06626 2614 ft 177 kts 212°
2026-05-03 23:31 40.83274 -74.07411 2569 ft 177 kts 214°
2026-05-03 23:31 40.82168 -74.08222 2543 ft 184 kts 213°
2026-05-03 23:31 40.81105 -74.08967 2512 ft 162 kts 212°
2026-05-03 23:32 40.80060 -74.09615 2296 ft 173 kts 209°
2026-05-03 23:32 40.78973 -74.10293 2076 ft 161 kts 210°
2026-05-03 23:32 40.77998 -74.10898 1845 ft 150 kts 210°
2026-05-03 23:32 40.77080 -74.11484 1622 ft 147 kts 211°
2026-05-03 23:33 40.76144 -74.12079 1420 ft 147 kts 212°
2026-05-03 23:33 40.75227 -74.12669 1209 ft 145 kts 210°
2026-05-03 23:33 40.74374 -74.13214 1005 ft 129 kts 212°
2026-05-03 23:33 40.73567 -74.13737 834 ft 133 kts 211°
2026-05-03 23:34 40.72717 -74.14288 677 ft 139 kts 210°
2026-05-03 23:34 40.71844 -74.14817 488 ft 134 kts 208°
2026-05-03 23:34 40.71019 -74.15332 305 ft 128 kts 212°
2026-05-03 23:34 40.70345 -74.15778 129 ft 131 kts 210°
2026-05-03 23:35 40.69542 -74.16290 26 ft 127 kts 208°
2026-05-03 23:35 40.68892 -74.16706 18 ft 60 kts 205°
2026-05-03 23:35 40.68662 -74.16854 17 ft 22 kts 207°
2026-05-03 23:35 40.68550 -74.16972 18 ft 18 kts 230°
2026-05-03 23:36 40.68503 -74.17064 21 ft 6 kts 245°
2026-05-03 23:36 40.68502 -74.17109 21 ft 4 kts 300°
2026-05-03 23:36 40.68526 -74.17136 21 ft 5 kts 344°
2026-05-03 23:36 40.68574 -74.17128 20 ft 9 kts 27°
2026-05-03 23:37 40.68640 -74.17084 19 ft 12 kts 26°
2026-05-03 23:37 40.68723 -74.17032 18 ft 14 kts 25°
2026-05-03 23:37 40.68812 -74.16975 17 ft 15 kts 26°
2026-05-03 23:37 40.68916 -74.16908 17 ft 17 kts 26°
2026-05-03 23:38 40.69013 -74.16847 19 ft 13 kts 26°
2026-05-03 23:38 40.69099 -74.16792 19 ft 14 kts 26°
2026-05-03 23:38 40.69173 -74.16745 21 ft 9 kts 25°
2026-05-03 23:38 40.69202 -74.16727 22 ft 0 kts 26°
2026-05-03 23:41 40.69214 -74.16719 22 ft 7 kts 26°
2026-05-03 23:41 40.69272 -74.16682 23 ft 11 kts 26°
2026-05-03 23:41 40.69342 -74.16638 24 ft 10 kts 25°
2026-05-03 23:41 40.69405 -74.16646 21 ft 11 kts 312°
2026-05-03 23:42 40.69445 -74.16742 19 ft 13 kts 297°
2026-05-03 23:42 40.69483 -74.16843 19 ft 11 kts 296°
2026-05-03 23:42 40.69519 -74.16943 17 ft 11 kts 295°
2026-05-03 23:42 40.69529 -74.17033 17 ft 8 kts 262°
2026-05-03 23:43 40.69553 -74.17087 19 ft 9 kts 334°
2026-05-03 23:43 40.69623 -74.17120 19 ft 12 kts 339°
2026-05-03 23:43 40.69700 -74.17170 19 ft 11 kts 327°
2026-05-03 23:43 40.69754 -74.17225 19 ft 9 kts 320°
2026-05-03 23:44 40.69783 -74.17262 21 ft 5 kts 302°
2026-05-03 23:44 40.69778 -74.17309 20 ft 7 kts 232°
2026-05-03 23:44 40.69736 -74.17359 20 ft 9 kts 220°
2026-05-03 23:44 40.69682 -74.17420 19 ft 10 kts 220°
2026-05-03 23:45 40.69637 -74.17470 18 ft 7 kts 220°
2026-05-03 23:45 40.69604 -74.17508 19 ft 4 kts 221°
2026-05-03 23:45 40.69594 -74.17519 18 ft 3 kts 222°
2026-05-03 23:45 40.69575 -74.17547 18 ft 4 kts 226°
2026-05-03 23:46 40.69558 -74.17563 18 ft 2 kts 204°
2026-05-03 23:46 40.69546 -74.17570 20 ft 0 kts 203°
2026-05-03 23:46 40.69545 -74.17570 19 ft 0 kts 203°